| time (UTC) | temp F | wind direction | speed knots | gust knots | rain 1hr in | rain 24hr in | rain mn in | humidity % | barometer mb |
| 20260504100103 | 36 | 234 | 4.3 | 20.9 | 0.03 | 0.78 | 0.22 | 98 | 982.8 |
| 20260504081556 | 37 | 261 | 1.7 | 7.0 | 0.04 | 0.73 | 0.17 | 100 | 978.0 |
| 20260504044557 | 39 | 0 | 0.0 | 5.2 | 0.02 | 0.60 | 0.04 | 100 | 974.5 |
| 20260504043100 | 39 | 108 | 4.3 | 10.4 | 0.02 | 0.58 | 0.03 | 100 | 974.7 |
| 20260504041557 | 39 | 113 | 6.1 | 13.0 | 0.01 | 0.58 | 0.02 | 99 | 975.1 |
| 20260504040100 | 39 | 124 | 7.8 | 15.6 | 0.02 | 0.58 | 0.02 | 99 | 975.5 |
| 20260504034559 | 39 | 139 | 7.0 | 12.2 | 0.02 | 0.58 | 0.02 | 99 | 976.4 |
| 20260504033059 | 40 | 109 | 7.8 | 15.6 | 0.01 | 0.57 | 0.01 | 98 | 977.1 |
| 20260504031554 | 40 | 54 | 2.6 | 11.3 | 0.01 | 0.57 | 0.01 | 99 | 977.6 |
| 20260504030058 | 40 | 105 | 5.2 | 8.7 | 0.00 | 0.56 | 0.00 | 98 | 978.4 |
| 20260504024558 | 41 | 116 | 4.3 | 12.2 | 0.00 | 0.56 | 0.56 | 99 | 978.9 |
| 20260504023103 | 41 | 0 | 0.9 | 11.3 | 0.00 | 0.56 | 0.56 | 99 | 979.4 |
| 20260504021608 | 40 | 114 | 6.1 | 17.4 | 0.00 | 0.56 | 0.56 | 99 | 980.3 |
| 20260504020134 | 40 | 157 | 7.0 | 15.6 | 0.00 | 0.56 | 0.56 | 99 | 981.0 |
| 20260504014610 | 40 | 108 | 7.8 | 17.4 | 0.01 | 0.56 | 0.56 | 98 | 981.6 |
| 20260504013120 | 41 | 123 | 5.2 | 24.3 | 0.02 | 0.56 | 0.56 | 98 | 982.5 |
| 20260504011604 | 40 | 69 | 7.0 | 25.2 | 0.03 | 0.56 | 0.56 | 98 | 982.6 |
| 20260504004643 | 40 | 74 | 7.8 | 16.5 | 0.03 | 0.55 | 0.55 | 98 | 984.3 |
| 20260504003108 | 41 | 119 | 7.0 | 26.1 | 0.04 | 0.54 | 0.54 | 97 | 985.5 |
| 20260504001623 | 41 | 62 | 5.2 | 14.8 | 0.08 | 0.52 | 0.52 | 98 | 986.1 |
| 20260504000125 | 41 | 0 | 5.2 | 18.2 | 0.12 | 0.52 | 0.52 | 99 | 986.8 |
| 20260503234609 | 40 | 59 | 5.2 | 18.2 | 0.13 | 0.52 | 0.52 | 98 | 987.7 |
| 20260503233112 | 40 | 98 | 7.8 | 16.5 | 0.12 | 0.50 | 0.50 | 98 | 987.8 |
| 20260503231555 | 40 | 113 | 10.4 | 25.2 | 0.09 | 0.45 | 0.45 | 98 | 989.9 |
| 20260503230116 | 39 | 96 | 4.3 | 17.4 | 0.09 | 0.40 | 0.40 | 98 | 990.3 |
| 20260503224606 | 39 | 88 | 4.3 | 13.9 | 0.12 | 0.39 | 0.39 | 98 | 991.3 |
| 20260503223057 | 39 | 96 | 5.2 | 17.4 | 0.14 | 0.38 | 0.38 | 98 | 992.6 |
| 20260503221605 | 39 | 88 | 6.1 | 13.9 | 0.14 | 0.36 | 0.36 | 98 | 993.8 |
| 20260503220058 | 39 | 175 | 8.7 | 22.6 | 0.12 | 0.31 | 0.31 | 98 | 994.6 |
| 20260503214602 | 39 | 117 | 8.7 | 15.6 | 0.11 | 0.26 | 0.26 | 99 | 995.0 |
| 20260503213057 | 38 | 132 | 7.0 | 16.5 | 0.10 | 0.24 | 0.24 | 99 | 994.9 |
| 20260503211555 | 37 | 89 | 7.0 | 20.9 | 0.08 | 0.22 | 0.22 | 99 | 995.2 |
| 20260503210055 | 38 | 111 | 7.0 | 18.2 | 0.07 | 0.19 | 0.19 | 97 | 995.7 |
| 20260503204557 | 39 | 112 | 7.8 | 21.7 | 0.05 | 0.15 | 0.15 | 96 | 996.7 |
| 20260503203113 | 42 | 112 | 7.8 | 18.2 | 0.07 | 0.14 | 0.14 | 97 | 997.0 |
| 20260503201556 | 41 | 92 | 2.6 | 10.4 | 0.08 | 0.14 | 0.14 | 98 | 997.2 |
| 20260503200105 | 41 | 55 | 6.1 | 11.3 | 0.06 | 0.12 | 0.12 | 97 | 997.7 |
| 20260503194557 | 41 | 95 | 3.5 | 11.3 | 0.07 | 0.10 | 0.10 | 97 | 998.8 |
| 20260503193057 | 41 | 80 | 3.5 | 10.4 | 0.07 | 0.07 | 0.07 | 96 | 999.8 |
| 20260503191558 | 42 | 94 | 4.3 | 11.3 | 0.06 | 0.06 | 0.06 | 96 | 1000.4 |
| 20260503190109 | 42 | 95 | 5.2 | 13.9 | 0.06 | 0.06 | 0.06 | 94 | 1001.6 |
| 20260503184602 | 43 | 96 | 6.1 | 13.0 | 0.03 | 0.03 | 0.03 | 90 | 1003.2 |
| 20260503183057 | 44 | 103 | 6.1 | 13.0 | 0.00 | 0.00 | 0.00 | 84 | 1003.5 |
| 20260503181602 | 45 | 116 | 6.1 | 13.9 | 0.00 | 0.00 | 0.00 | 78 | 1004.6 |
| 20260503180058 | 46 | 90 | 1.7 | 10.4 | 0.00 | 0.00 | 0.00 | 76 | 1005.4 |
| 20260503174603 | 47 | 108 | 7.0 | 13.9 | 0.00 | 0.00 | 0.00 | 72 | 1005.9 |
| 20260503173100 | 49 | 0 | 1.7 | 6.1 | 0.00 | 0.00 | 0.00 | 72 | 1006.4 |
| 20260503171604 | 49 | 159 | 1.7 | 6.1 | 0.00 | 0.00 | 0.00 | 69 | 1007.1 |
| 20260503110110 | 37 | 0 | 0.0 | 0.0 | 0.00 | 0.00 | 0.00 | 100 | 1013.7 |